Location: Hermaringen
(48.5952°N, 10.2585°E)
Time: 04:45:44
(UTC+00:00)

Altair - Pass Details

Date: 23 February 2026
Orbit: 1502 x 1682 km, 47.2° (Epoch: 5 March)

Event Time Altitude Azimuth Distance (km) Brightness Sun altitude
Rises 09:08:37 0° 290° (WNW) 4,702 9.6 23.6°
Reaches altitude 10° 09:11:59 10° 281° (W) 3,740 9.2 24.0°
Maximum altitude 09:20:04 33° 222° (SW) 2,426 8.9 24.8°
Drops below altitude 10° 09:28:25 10° 163° (SSE) 3,851 11.1 25.6°
Sets 09:31:59 0° 154° (SSE) 4,859 11.4 25.9°
